Regional Weather Roundup
Issued by NWS Raleigh/Durham, NC

Home | Current Version | Previous Version | Text Only | Print | Product List | Glossary On
Versions: 1 2 3 4 5 6 7 8 9 10 11 12 13 14 15 16 17 18 19 20 21 22 23 24 25 26 27
000
ASUS42 KRAH 180510
RWRRAH
NORTH CAROLINA WEATHER ROUNDUP
NATIONAL WEATHER SERVICE RALEIGH NC
1200 AM EST SAT NOV 18 2017

NOTE: "FAIR" INDICATES FEW OR NO CLOUDS BELOW 12,000 FEET WITH NO
SIGNIFICANT WEATHER AND/OR OBSTRUCTIONS TO VISIBILITY.

NCZ001-053-055-056-065-067-180600-
WESTERN NORTH CAROLINA

CITY           SKY/WX    TMP DP  RH WIND       PRES   REMARKS
ASHEVILLE      PTCLDY    43  34  70 SE7       30.09F
JEFFERSON      MOCLDY    41  28  59 CALM      30.07S
MORGANTON      CLOUDY    35  34  96 CALM      30.14S
HICKORY        CLOUDY    43  33  68 CALM      30.10S
RUTHERFORDTON  PTCLDY    36  35  96 CALM      30.12S
MOUNT AIRY     CLEAR     42  31  65 CALM      30.12S
BOONE          CLEAR     44  28  54 S3        30.07F
$$

NCZ021-022-025-041-071-084-088-180600-
CENTRAL NORTH CAROLINA

CITY           SKY/WX    TMP DP  RH WIND       PRES   REMARKS
CHARLOTTE      PTCLDY    43  34  70 S5        30.12F
GREENSBORO     PTCLDY    39  32  76 SW6       30.10F WCI  35
WINSTON-SALEM  CLEAR     42  30  62 S3        30.12S
RALEIGH-DURHAM CLEAR     36  33  89 CALM      30.14F
FORT BRAGG     CLEAR     34  33  94 CALM      30.13F
FAYETTEVILLE   CLEAR     37  36  96 CALM      30.15F
BURLINGTON     CLEAR     33  31  92 CALM      30.11F
LAURINBURG     CLEAR     34  32  92 CALM      30.15F
$$

NCZ011-015-027-028-043-044-047-080-103-180600-
NORTHEASTERN NORTH CAROLINA

CITY           SKY/WX    TMP DP  RH WIND       PRES   REMARKS
ROCKY MT-WILSO CLEAR     32  32 100 CALM      30.15F
GREENVILLE     CLEAR     34  34 100 CALM      30.17F FOG
ELIZABETH CITY CLEAR     34  34 100 CALM      30.17S
MANTEO         CLEAR     36  35  96 CALM      30.17R
CAPE HATTERAS  CLEAR     40  39  97 N3        30.16S
$$

NCZ078-087-090-091-093-098-101-180600-
SOUTHEASTERN NORTH CAROLINA

CITY           SKY/WX    TMP DP  RH WIND       PRES   REMARKS
LUMBERTON      CLEAR     30  30 100 CALM      30.15F
GOLDSBORO      CLEAR     34  31  89 CALM      30.14F
KINSTON        CLEAR     32  31  96 CALM      30.16F
KENANSVILLE    CLEAR     30  30 100 CALM      30.16F FOG
NEW BERN       CLEAR     34  34 100 CALM      30.18S
CHERRY POINT   NOT AVBL
BEAUFORT       CLEAR     38  37  97 CALM      30.17S
JACKSONVILLE   NOT AVBL
WILMINGTON     CLEAR     38  37  97 CALM      30.17S
$$





USA.gov is the U.S. government's official web portal to all federal, state and local government web resources and services.